Volver al catálogo

GALAXY 37

ActivoComunicacionesGEO
NORAD 57493·PAYLOAD·🇺🇸 United States

Lanzado Aug 3, 2023 desde Cape Canaveral Space Force Station

Loading…

TLE

ActualizadoSource: CelesTrak SupGP

Época: Sep 14, 2026, 00:00 UTC

1 57493C 23112A   26257.00000000 -.00004105  00000+0  00000+0 0  2575
2 57493   0.0001 143.9199 0001971  30.2933  51.7707  1.00272226    15

Sigue GALAXY 37 en tiempo real con AllMySat

Download on the App Store